| time (UTC) | temp F | wind direction | speed knots | gust knots | rain 1hr in | rain 24hr in | rain mn in | humidity % | barometer mb |
| 20260509185856 | 65 | 225 | 7.8 | 13.0 | 0.00 | 0.00 | 0.00 | 64 | 1027.0 |
| 20260509185356 | 66 | 270 | 7.0 | 13.0 | 0.00 | 0.00 | 0.00 | 67 | 1028.0 |
| 20260509184857 | 65 | 203 | 8.7 | 13.0 | 0.00 | 0.00 | 0.00 | 67 | 1028.0 |
| 20260509184356 | 65 | 225 | 8.7 | 10.4 | 0.00 | 0.00 | 0.00 | 67 | 1027.0 |
| 20260509183858 | 65 | 180 | 12.2 | 12.2 | 0.00 | 0.00 | 0.00 | 68 | 1028.0 |
| 20260509183356 | 65 | 225 | 10.4 | 12.2 | 0.00 | 0.00 | 0.00 | 68 | 1028.0 |
| 20260509182856 | 65 | 225 | 8.7 | 12.2 | 0.00 | 0.00 | 0.00 | 68 | 1028.0 |
| 20260509182356 | 64 | 203 | 7.0 | 10.4 | 0.00 | 0.00 | 0.00 | 68 | 1028.0 |
| 20260509181859 | 64 | 225 | 8.7 | 11.3 | 0.00 | 0.00 | 0.00 | 68 | 1028.0 |
| 20260509181356 | 64 | 203 | 6.1 | 10.4 | 0.00 | 0.00 | 0.00 | 68 | 1028.0 |
| 20260509180856 | 64 | 225 | 8.7 | 9.6 | 0.00 | 0.00 | 0.00 | 68 | 1028.0 |
| 20260509180356 | 63 | 225 | 8.7 | 12.2 | 0.00 | 0.00 | 0.00 | 68 | 1028.0 |
| 20260509175856 | 64 | 225 | 6.1 | 8.7 | 0.00 | 0.00 | 0.00 | 68 | 1028.0 |
| 20260509175356 | 64 | 225 | 7.8 | 11.3 | 0.00 | 0.00 | 0.00 | 68 | 1028.0 |
| 20260509174856 | 64 | 225 | 8.7 | 12.2 | 0.00 | 0.00 | 0.00 | 67 | 1028.0 |
| 20260509174356 | 64 | 248 | 9.6 | 11.3 | 0.00 | 0.00 | 0.00 | 67 | 1028.0 |
| 20260509173856 | 64 | 225 | 9.6 | 10.4 | 0.00 | 0.00 | 0.00 | 67 | 1028.0 |
| 20260509173357 | 64 | 270 | 8.7 | 10.4 | 0.00 | 0.00 | 0.00 | 67 | 1028.0 |
| 20260509172858 | 64 | 203 | 6.1 | 9.6 | 0.00 | 0.00 | 0.00 | 67 | 1028.0 |
| 20260509172356 | 65 | 225 | 7.0 | 7.8 | 0.00 | 0.00 | 0.00 | 66 | 1028.0 |
| 20260509171856 | 65 | 248 | 10.4 | 10.4 | 0.00 | 0.00 | 0.00 | 66 | 1028.0 |
| 20260509170909 | 63 | 203 | 3.5 | 8.7 | 0.00 | 0.00 | 0.00 | 67 | 1028.0 |
| 20260509170356 | 64 | 248 | 7.0 | 9.6 | 0.00 | 0.00 | 0.00 | 67 | 1028.0 |
| 20260509165856 | 64 | 203 | 8.7 | 10.4 | 0.00 | 0.00 | 0.00 | 67 | 1029.0 |
| 20260509165356 | 64 | 293 | 3.5 | 7.0 | 0.00 | 0.00 | 0.00 | 67 | 1028.0 |
| 20260509164856 | 64 | 248 | 5.2 | 9.6 | 0.00 | 0.00 | 0.00 | 66 | 1028.0 |
| 20260509164358 | 65 | 225 | 6.1 | 11.3 | 0.00 | 0.00 | 0.00 | 67 | 1028.0 |
| 20260509163856 | 64 | 180 | 5.2 | 8.7 | 0.00 | 0.00 | 0.00 | 67 | 1029.0 |
| 20260509163357 | 64 | 248 | 5.2 | 7.8 | 0.00 | 0.00 | 0.00 | 67 | 1029.0 |
| 20260509162857 | 63 | 248 | 8.7 | 9.6 | 0.00 | 0.00 | 0.00 | 67 | 1029.0 |
| 20260509162356 | 64 | 270 | 6.1 | 13.0 | 0.00 | 0.00 | 0.00 | 67 | 1029.0 |
| 20260509161856 | 64 | 225 | 7.8 | 7.8 | 0.00 | 0.00 | 0.00 | 68 | 1029.0 |
| 20260509161356 | 64 | 225 | 7.0 | 7.0 | 0.00 | 0.00 | 0.00 | 68 | 1029.0 |
| 20260509160856 | 63 | 270 | 6.1 | 8.7 | 0.00 | 0.00 | 0.00 | 69 | 1029.0 |
| 20260509160356 | 62 | 225 | 5.2 | 8.7 | 0.00 | 0.00 | 0.00 | 68 | 1029.0 |
| 20260509155856 | 64 | 270 | 7.0 | 7.0 | 0.00 | 0.00 | 0.00 | 69 | 1029.0 |
| 20260509155356 | 62 | 180 | 5.2 | 9.6 | 0.00 | 0.00 | 0.00 | 69 | 1029.0 |
| 20260509154856 | 62 | 248 | 4.3 | 7.8 | 0.00 | 0.00 | 0.00 | 68 | 1029.0 |
| 20260509154357 | 64 | 225 | 7.8 | 7.8 | 0.00 | 0.00 | 0.00 | 70 | 1029.0 |
| 20260509153858 | 61 | 270 | 3.5 | 8.7 | 0.00 | 0.00 | 0.00 | 71 | 1029.0 |
| 20260509153356 | 61 | 248 | 7.0 | 7.0 | 0.00 | 0.00 | 0.00 | 72 | 1029.0 |
| 20260509152857 | 60 | 180 | 2.6 | 6.1 | 0.00 | 0.00 | 0.00 | 72 | 1029.0 |
| 20260509152356 | 60 | 203 | 4.3 | 6.1 | 0.00 | 0.00 | 0.00 | 72 | 1029.0 |
| 20260509151856 | 60 | 203 | 7.0 | 7.0 | 0.00 | 0.00 | 0.00 | 73 | 1029.0 |
| 20260509151357 | 61 | 225 | 7.8 | 8.7 | 0.00 | 0.00 | 0.00 | 73 | 1029.0 |
| 20260509150856 | 61 | 270 | 5.2 | 7.8 | 0.00 | 0.00 | 0.00 | 73 | 1029.0 |
| 20260509150356 | 60 | 203 | 4.3 | 5.2 | 0.00 | 0.00 | 0.00 | 73 | 1029.0 |
| 20260509145856 | 61 | 225 | 4.3 | 7.8 | 0.00 | 0.00 | 0.00 | 73 | 1029.0 |
| 20260509145356 | 60 | 270 | 5.2 | 7.8 | 0.00 | 0.00 | 0.00 | 75 | 1029.0 |
| 20260509144856 | 60 | 203 | 4.3 | 6.1 | 0.00 | 0.00 | 0.00 | 75 | 1029.0 |
| 20260509144356 | 59 | 203 | 4.3 | 7.0 | 0.00 | 0.00 | 0.00 | 75 | 1029.0 |
| 20260509143856 | 59 | 248 | 4.3 | 5.2 | 0.00 | 0.00 | 0.00 | 75 | 1029.0 |
| 20260509143356 | 60 | 203 | 2.6 | 4.3 | 0.00 | 0.00 | 0.00 | 75 | 1029.0 |
| 20260509142856 | 60 | 225 | 6.1 | 6.1 | 0.00 | 0.00 | 0.00 | 75 | 1029.0 |
| 20260509142356 | 59 | 203 | 3.5 | 7.0 | 0.00 | 0.00 | 0.00 | 75 | 1029.0 |
| 20260509141856 | 60 | 225 | 7.8 | 8.7 | 0.00 | 0.00 | 0.00 | 75 | 1029.0 |
| 20260509141356 | 60 | 203 | 5.2 | 5.2 | 0.00 | 0.00 | 0.00 | 77 | 1029.0 |
| 20260509140856 | 59 | 225 | 6.1 | 7.8 | 0.00 | 0.00 | 0.00 | 78 | 1029.0 |
| 20260509140356 | 59 | 248 | 3.5 | 6.1 | 0.00 | 0.00 | 0.00 | 80 | 1029.0 |
| 20260509135857 | 58 | 203 | 4.3 | 7.8 | 0.00 | 0.00 | 0.00 | 80 | 1030.0 |
| 20260509135401 | 58 | 248 | 7.0 | 7.8 | 0.00 | 0.00 | 0.00 | 80 | 1030.0 |
| 20260509134857 | 59 | 203 | 4.3 | 8.7 | 0.00 | 0.00 | 0.00 | 80 | 1030.0 |
| 20260509134356 | 59 | 270 | 7.8 | 8.7 | 0.00 | 0.00 | 0.00 | 81 | 1029.0 |
| 20260509133856 | 57 | 180 | 3.5 | 7.8 | 0.00 | 0.00 | 0.00 | 81 | 1029.0 |
| 20260509133356 | 58 | 203 | 6.1 | 7.0 | 0.00 | 0.00 | 0.00 | 81 | 1030.0 |
| 20260509132856 | 57 | 180 | 7.8 | 8.7 | 0.00 | 0.00 | 0.00 | 81 | 1030.0 |
| 20260509132356 | 58 | 225 | 7.8 | 10.4 | 0.00 | 0.00 | 0.00 | 81 | 1030.0 |
| 20260509131856 | 58 | 225 | 7.0 | 7.0 | 0.00 | 0.00 | 0.00 | 82 | 1030.0 |
| 20260509131356 | 57 | 180 | 7.0 | 8.7 | 0.00 | 0.00 | 0.00 | 83 | 1030.0 |
| 20260509130856 | 57 | 180 | 6.1 | 6.1 | 0.00 | 0.00 | 0.00 | 83 | 1030.0 |
| 20260509130357 | 57 | 180 | 5.2 | 5.2 | 0.00 | 0.00 | 0.00 | 84 | 1030.0 |
| 20260509125856 | 57 | 203 | 2.6 | 4.3 | 0.00 | 0.00 | 0.00 | 85 | 1030.0 |
| 20260509125356 | 56 | 180 | 4.3 | 5.2 | 0.00 | 0.00 | 0.00 | 85 | 1030.0 |
| 20260509124856 | 55 | 113 | 4.3 | 5.2 | 0.00 | 0.00 | 0.00 | 86 | 1030.0 |
| 20260509124356 | 54 | 180 | 3.5 | 4.3 | 0.00 | 0.00 | 0.00 | 87 | 1030.0 |
| 20260509123856 | 54 | 158 | 2.6 | 5.2 | 0.00 | 0.00 | 0.00 | 88 | 1030.0 |
| 20260509123357 | 54 | 113 | 3.5 | 3.5 | 0.00 | 0.00 | 0.00 | 89 | 1030.0 |
| 20260509122856 | 53 | 158 | 1.7 | 2.6 | 0.00 | 0.00 | 0.00 | 89 | 1030.0 |
| 20260509121912 | 52 | 135 | 2.6 | 2.6 | 0.00 | 0.00 | 0.00 | 90 | 1030.0 |
| 20260509121356 | 51 | 158 | 2.6 | 2.6 | 0.00 | 0.00 | 0.00 | 91 | 1030.0 |
| 20260509120856 | 51 | 180 | 2.6 | 3.5 | 0.00 | 0.00 | 0.00 | 92 | 1030.0 |
| 20260509120356 | 50 | 158 | 1.7 | 2.6 | 0.00 | 0.00 | 0.00 | 92 | 1030.0 |
| 20260509115856 | 50 | 180 | 2.6 | 3.5 | 0.00 | 0.00 | 0.00 | 93 | 1030.0 |
| 20260509115356 | 50 | 158 | 2.6 | 2.6 | 0.00 | 0.00 | 0.00 | 93 | 1030.0 |
| 20260509114856 | 49 | 158 | 3.5 | 3.5 | 0.00 | 0.00 | 0.00 | 94 | 1030.0 |
| 20260509114356 | 49 | 158 | 1.7 | 2.6 | 0.00 | 0.00 | 0.00 | 94 | 1030.0 |
| 20260509113856 | 48 | 113 | 1.7 | 1.7 | 0.00 | 0.00 | 0.00 | 95 | 1030.0 |
| 20260509113357 | 48 | 158 | 1.7 | 2.6 | 0.00 | 0.00 | 0.00 | 95 | 1030.0 |
| 20260509112856 | 47 | 180 | 1.7 | 3.5 | 0.00 | 0.00 | 0.00 | 96 | 1030.0 |
| 20260509112356 | 47 | 135 | 3.5 | 3.5 | 0.00 | 0.00 | 0.00 | 96 | 1030.0 |
| 20260509111856 | 46 | 113 | 1.7 | 1.7 | 0.00 | 0.00 | 0.00 | 96 | 1030.0 |
| 20260509111357 | 46 | 113 | 1.7 | 1.7 | 0.00 | 0.00 | 0.00 | 96 | 1030.0 |
| 20260509110857 | 45 | 90 | 1.7 | 1.7 | 0.00 | 0.00 | 0.00 | 96 | 1030.0 |
| 20260509110356 | 45 | 90 | 0.9 | 1.7 | 0.00 | 0.00 | 0.00 | 96 | 1030.0 |
| 20260509105856 | 44 | 113 | 0.9 | 0.9 | 0.00 | 0.00 | 0.00 | 96 | 1030.0 |
| 20260509105356 | 44 | 113 | 1.7 | 1.7 | 0.00 | 0.00 | 0.00 | 96 | 1030.0 |
| 20260509104856 | 44 | 113 | 1.7 | 1.7 | 0.00 | 0.00 | 0.00 | 96 | 1030.0 |
| 20260509104356 | 44 | 113 | 1.7 | 1.7 | 0.00 | 0.00 | 0.00 | 95 | 1030.0 |
| 20260509103857 | 43 | 113 | 0.0 | 1.7 | 0.00 | 0.00 | 0.00 | 95 | 1030.0 |
| 20260509103356 | 43 | 113 | 0.9 | 1.7 | 0.00 | 0.00 | 0.00 | 95 | 1030.0 |
| 20260509102856 | 43 | 135 | 0.0 | 0.9 | 0.00 | 0.00 | 0.00 | 95 | 1030.0 |
| 20260509102356 | 43 | 113 | 0.9 | 1.7 | 0.00 | 0.00 | 0.00 | 95 | 1030.0 |
| 20260509101856 | 43 | 113 | 0.9 | 0.9 | 0.00 | 0.00 | 0.00 | 95 | 1030.0 |
| 20260509101357 | 43 | 113 | 1.7 | 1.7 | 0.00 | 0.00 | 0.00 | 94 | 1030.0 |
| 20260509100856 | 43 | 135 | 0.9 | 0.9 | 0.00 | 0.00 | 0.00 | 94 | 1030.0 |
| 20260509100356 | 43 | 113 | 1.7 | 1.7 | 0.00 | 0.00 | 0.00 | 94 | 1030.0 |
| 20260509095856 | 43 | 113 | 0.9 | 1.7 | 0.00 | 0.00 | 0.00 | 94 | 1030.0 |
| 20260509095357 | 43 | 113 | 0.9 | 2.6 | 0.00 | 0.00 | 0.00 | 93 | 1030.0 |
| 20260509094856 | 43 | 113 | 0.9 | 1.7 | 0.00 | 0.00 | 0.00 | 93 | 1030.0 |
| 20260509094356 | 43 | 90 | 0.9 | 1.7 | 0.00 | 0.00 | 0.00 | 92 | 1030.0 |
| 20260509093856 | 43 | 68 | 0.9 | 1.7 | 0.00 | 0.00 | 0.00 | 92 | 1030.0 |
| 20260509093356 | 43 | 113 | 1.7 | 1.7 | 0.00 | 0.00 | 0.00 | 91 | 1030.0 |
| 20260509092856 | 43 | 113 | 0.9 | 1.7 | 0.00 | 0.00 | 0.00 | 91 | 1030.0 |
| 20260509092357 | 43 | 135 | 0.9 | 1.7 | 0.00 | 0.00 | 0.00 | 90 | 1030.0 |
| 20260509091856 | 43 | 113 | 0.9 | 0.9 | 0.00 | 0.00 | 0.00 | 90 | 1030.0 |
| 20260509091356 | 43 | 113 | 0.9 | 1.7 | 0.00 | 0.00 | 0.00 | 89 | 1030.0 |
| 20260509090856 | 43 | 113 | 0.9 | 1.7 | 0.00 | 0.00 | 0.00 | 89 | 1030.0 |
| 20260509090357 | 43 | 90 | 0.9 | 1.7 | 0.00 | 0.00 | 0.00 | 88 | 1030.0 |
| 20260509085856 | 43 | 113 | 0.9 | 0.9 | 0.00 | 0.00 | 0.00 | 88 | 1030.0 |
| 20260509085356 | 43 | 135 | 1.7 | 1.7 | 0.00 | 0.00 | 0.00 | 87 | 1030.0 |
| 20260509084856 | 43 | 113 | 0.9 | 1.7 | 0.00 | 0.00 | 0.00 | 86 | 1030.0 |
| 20260509084357 | 43 | 135 | 1.7 | 1.7 | 0.00 | 0.00 | 0.00 | 86 | 1030.0 |
| 20260509083856 | 43 | 113 | 0.9 | 1.7 | 0.00 | 0.00 | 0.00 | 86 | 1030.0 |
| 20260509083356 | 43 | 113 | 0.9 | 1.7 | 0.00 | 0.00 | 0.00 | 85 | 1030.0 |
| 20260509082856 | 43 | 113 | 0.9 | 1.7 | 0.00 | 0.00 | 0.00 | 85 | 1030.0 |
| 20260509082357 | 43 | 113 | 0.9 | 1.7 | 0.00 | 0.00 | 0.00 | 84 | 1030.0 |
| 20260509081856 | 43 | 113 | 1.7 | 2.6 | 0.00 | 0.00 | 0.00 | 84 | 1030.0 |
| 20260509081356 | 43 | 135 | 0.9 | 2.6 | 0.00 | 0.00 | 0.00 | 83 | 1030.0 |
| 20260509080856 | 43 | 113 | 1.7 | 2.6 | 0.00 | 0.00 | 0.00 | 82 | 1030.0 |
| 20260509080356 | 43 | 180 | 1.7 | 3.5 | 0.00 | 0.00 | 0.00 | 82 | 1031.0 |
| 20260509075856 | 43 | 135 | 2.6 | 3.5 | 0.00 | 0.00 | 0.00 | 82 | 1030.0 |
| 20260509075356 | 42 | 113 | 1.7 | 3.5 | 0.00 | 0.00 | 0.00 | 81 | 1031.0 |
| 20260509074857 | 42 | 158 | 1.7 | 3.5 | 0.00 | 0.00 | 0.00 | 81 | 1031.0 |
| 20260509074356 | 42 | 135 | 1.7 | 2.6 | 0.00 | 0.00 | 0.00 | 80 | 1031.0 |
| 20260509073856 | 42 | 135 | 0.9 | 3.5 | 0.00 | 0.00 | 0.00 | 80 | 1031.0 |
| 20260509073356 | 42 | 158 | 0.9 | 2.6 | 0.00 | 0.00 | 0.00 | 80 | 1031.0 |
| 20260509072856 | 42 | 135 | 1.7 | 2.6 | 0.00 | 0.00 | 0.00 | 79 | 1031.0 |
| 20260509072356 | 42 | 113 | 2.6 | 2.6 | 0.00 | 0.00 | 0.00 | 79 | 1031.0 |
| 20260509071856 | 42 | 113 | 1.7 | 2.6 | 0.00 | 0.00 | 0.00 | 79 | 1031.0 |
| 20260509071357 | 42 | 113 | 1.7 | 1.7 | 0.00 | 0.00 | 0.00 | 78 | 1031.0 |
| 20260509070856 | 42 | 135 | 1.7 | 2.6 | 0.00 | 0.00 | 0.00 | 78 | 1031.0 |
| 20260509070356 | 42 | 113 | 1.7 | 2.6 | 0.00 | 0.00 | 0.00 | 78 | 1031.0 |
| 20260509065856 | 42 | 113 | 2.6 | 3.5 | 0.00 | 0.00 | 0.00 | 78 | 1031.0 |
| 20260509065357 | 42 | 113 | 0.9 | 2.6 | 0.00 | 0.00 | 0.00 | 78 | 1031.0 |
| 20260509064856 | 42 | 113 | 1.7 | 3.5 | 0.00 | 0.00 | 0.00 | 78 | 1031.0 |
| 20260509064356 | 42 | 113 | 1.7 | 3.5 | 0.00 | 0.00 | 0.00 | 78 | 1031.0 |
| 20260509063856 | 42 | 113 | 2.6 | 3.5 | 0.00 | 0.00 | 0.00 | 78 | 1031.0 |
| 20260509063356 | 41 | 113 | 3.5 | 3.5 | 0.00 | 0.00 | 0.00 | 77 | 1031.0 |
| 20260509062856 | 41 | 113 | 2.6 | 2.6 | 0.00 | 0.00 | 0.00 | 77 | 1031.0 |
| 20260509062356 | 41 | 113 | 1.7 | 2.6 | 0.00 | 0.00 | 0.00 | 77 | 1031.0 |
| 20260509061857 | 41 | 113 | 2.6 | 2.6 | 0.00 | 0.00 | 0.00 | 77 | 1031.0 |
| 20260509061356 | 41 | 113 | 1.7 | 2.6 | 0.00 | 0.00 | 0.00 | 77 | 1032.0 |
| 20260509060856 | 41 | 113 | 1.7 | 2.6 | 0.00 | 0.00 | 0.00 | 77 | 1032.0 |
| 20260509060356 | 41 | 113 | 1.7 | 2.6 | 0.00 | 0.00 | 0.00 | 77 | 1032.0 |
| 20260509055857 | 41 | 90 | 1.7 | 1.7 | 0.00 | 0.00 | 0.00 | 77 | 1032.0 |
| 20260509055356 | 41 | 113 | 1.7 | 2.6 | 0.00 | 0.00 | 0.00 | 76 | 1032.0 |
| 20260509054419 | 41 | 113 | 1.7 | 2.6 | 0.00 | 0.00 | 0.00 | 76 | 1032.0 |
| 20260509053856 | 41 | 90 | 0.9 | 2.6 | 0.00 | 0.00 | 0.00 | 76 | 1032.0 |
| 20260509053356 | 41 | 113 | 1.7 | 1.7 | 0.00 | 0.00 | 0.00 | 76 | 1032.0 |
| 20260509052857 | 41 | 113 | 2.6 | 2.6 | 0.00 | 0.00 | 0.00 | 76 | 1032.0 |
| 20260509052356 | 41 | 90 | 1.7 | 2.6 | 0.00 | 0.00 | 0.00 | 76 | 1032.0 |
| 20260509051856 | 41 | 135 | 1.7 | 2.6 | 0.00 | 0.00 | 0.00 | 76 | 1032.0 |
| 20260509051356 | 41 | 113 | 1.7 | 2.6 | 0.00 | 0.00 | 0.00 | 75 | 1032.0 |
| 20260509050859 | 41 | 113 | 0.9 | 1.7 | 0.00 | 0.00 | 0.00 | 75 | 1032.0 |
| 20260509050356 | 41 | 113 | 0.9 | 1.7 | 0.00 | 0.00 | 0.00 | 75 | 1032.0 |
| 20260509045856 | 41 | 158 | 0.9 | 1.7 | 0.00 | 0.00 | 0.00 | 75 | 1032.0 |
| 20260509045356 | 42 | 135 | 0.9 | 1.7 | 0.00 | 0.00 | 0.00 | 75 | 1033.0 |
| 20260509044856 | 42 | 113 | 0.9 | 1.7 | 0.00 | 0.00 | 0.00 | 75 | 1032.0 |
| 20260509044356 | 42 | 113 | 1.7 | 1.7 | 0.00 | 0.00 | 0.00 | 74 | 1032.0 |
| 20260509043856 | 42 | 113 | 0.9 | 2.6 | 0.00 | 0.00 | 0.00 | 74 | 1032.0 |
| 20260509043356 | 42 | 90 | 0.9 | 1.7 | 0.00 | 0.00 | 0.00 | 74 | 1033.0 |
| 20260509042857 | 42 | 113 | 0.9 | 1.7 | 0.00 | 0.00 | 0.00 | 74 | 1033.0 |
| 20260509042357 | 42 | 113 | 1.7 | 1.7 | 0.00 | 0.00 | 0.00 | 73 | 1033.0 |
| 20260509041857 | 42 | 135 | 0.0 | 0.9 | 0.00 | 0.00 | 0.00 | 73 | 1033.0 |
| 20260509041358 | 42 | 113 | 0.9 | 1.7 | 0.00 | 0.00 | 0.00 | 73 | 1033.0 |
| 20260509040856 | 42 | 113 | 1.7 | 1.7 | 0.00 | 0.00 | 0.00 | 73 | 1033.0 |
| 20260509040356 | 42 | 113 | 1.7 | 1.7 | 0.00 | 0.00 | 0.00 | 73 | 1033.0 |
| 20260509035857 | 42 | 135 | 0.0 | 1.7 | 0.00 | 0.00 | 0.08 | 73 | 1033.0 |
| 20260509035356 | 42 | 90 | 2.6 | 2.6 | 0.00 | 0.00 | 0.08 | 73 | 1033.0 |
| 20260509034856 | 41 | 113 | 0.9 | 0.9 | 0.00 | 0.00 | 0.08 | 72 | 1033.0 |
| 20260509034357 | 42 | 113 | 1.7 | 1.7 | 0.00 | 0.00 | 0.08 | 72 | 1033.0 |
| 20260509033856 | 42 | 113 | 0.9 | 0.9 | 0.00 | 0.00 | 0.08 | 72 | 1033.0 |
| 20260509033356 | 42 | 113 | 0.9 | 0.9 | 0.00 | 0.00 | 0.08 | 71 | 1033.0 |
| 20260509032856 | 42 | 113 | 0.9 | 0.9 | 0.00 | 0.00 | 0.08 | 71 | 1033.0 |
| 20260509032356 | 42 | 113 | 0.0 | 0.9 | 0.00 | 0.00 | 0.08 | 70 | 1033.0 |
| 20260509031859 | 42 | 135 | 0.0 | 0.9 | 0.00 | 0.00 | 0.08 | 69 | 1033.0 |
| 20260509031358 | 42 | 135 | 0.0 | 0.0 | 0.00 | 0.00 | 0.08 | 68 | 1033.0 |
| 20260509030856 | 42 | 113 | 0.0 | 0.0 | 0.00 | 0.00 | 0.08 | 67 | 1033.0 |
| 20260509030356 | 42 | 135 | 0.0 | 0.0 | 0.00 | 0.00 | 0.08 | 67 | 1033.0 |
| 20260509025857 | 42 | 113 | 0.9 | 0.9 | 0.00 | 0.00 | 0.08 | 66 | 1033.0 |
| 20260509025356 | 42 | 158 | 0.0 | 0.9 | 0.00 | 0.00 | 0.08 | 66 | 1033.0 |
| 20260509024856 | 42 | 113 | 0.0 | 0.9 | 0.00 | 0.00 | 0.08 | 65 | 1033.0 |
| 20260509024357 | 42 | 113 | 0.0 | 0.0 | 0.00 | 0.00 | 0.08 | 64 | 1033.0 |
| 20260509023856 | 43 | 135 | 0.0 | 0.0 | 0.00 | 0.00 | 0.08 | 62 | 1033.0 |
| 20260509023356 | 43 | 113 | 0.0 | 0.0 | 0.00 | 0.00 | 0.08 | 61 | 1033.0 |
| 20260509022858 | 43 | 135 | 0.0 | 0.0 | 0.00 | 0.00 | 0.08 | 59 | 1033.0 |
| 20260509022356 | 44 | 135 | 0.0 | 0.0 | 0.00 | 0.00 | 0.08 | 58 | 1033.0 |
| 20260509021856 | 44 | 135 | 0.0 | 0.0 | 0.00 | 0.00 | 0.08 | 57 | 1033.0 |
| 20260509021356 | 44 | 158 | 0.0 | 0.0 | 0.00 | 0.00 | 0.08 | 56 | 1033.0 |
| 20260509020856 | 45 | 113 | 0.0 | 0.0 | 0.00 | 0.00 | 0.08 | 55 | 1033.0 |
| 20260509020357 | 45 | 113 | 0.0 | 0.0 | 0.00 | 0.00 | 0.08 | 55 | 1033.0 |
| 20260509015856 | 45 | 113 | 0.0 | 0.0 | 0.00 | 0.00 | 0.08 | 54 | 1033.0 |
| 20260509015356 | 46 | 135 | 0.0 | 0.9 | 0.00 | 0.00 | 0.08 | 53 | 1033.0 |
| 20260509014856 | 46 | 135 | 0.0 | 0.0 | 0.00 | 0.00 | 0.08 | 51 | 1033.0 |
| 20260509014356 | 46 | 113 | 0.0 | 0.0 | 0.00 | 0.00 | 0.08 | 50 | 1033.0 |
| 20260509013856 | 47 | 113 | 0.0 | 0.0 | 0.00 | 0.00 | 0.08 | 49 | 1033.0 |
| 20260509013356 | 47 | 135 | 0.0 | 0.0 | 0.00 | 0.00 | 0.08 | 47 | 1033.0 |
| 20260509012857 | 47 | 113 | 0.0 | 0.0 | 0.00 | 0.00 | 0.08 | 45 | 1033.0 |
| 20260509012357 | 48 | 158 | 0.0 | 0.0 | 0.00 | 0.00 | 0.08 | 43 | 1033.0 |
| 20260509011856 | 48 | 135 | 0.0 | 0.0 | 0.00 | 0.00 | 0.08 | 43 | 1033.0 |
| 20260509011356 | 49 | 158 | 0.0 | 0.0 | 0.00 | 0.00 | 0.08 | 42 | 1033.0 |
| 20260509010856 | 50 | 180 | 0.0 | 0.0 | 0.00 | 0.00 | 0.08 | 41 | 1033.0 |
| 20260509010358 | 50 | 225 | 0.0 | 0.0 | 0.00 | 0.00 | 0.08 | 41 | 1033.0 |
| 20260509005856 | 50 | 248 | 0.0 | 0.9 | 0.00 | 0.00 | 0.08 | 39 | 1033.0 |
| 20260509005356 | 50 | 248 | 0.0 | 0.9 | 0.00 | 0.00 | 0.08 | 38 | 1033.0 |
| 20260509004856 | 51 | 248 | 0.9 | 0.9 | 0.00 | 0.00 | 0.08 | 38 | 1033.0 |
| 20260509003931 | 52 | 248 | 1.7 | 1.7 | 0.00 | 0.00 | 0.08 | 37 | 1033.0 |
| 20260509003356 | 52 | 270 | 0.9 | 1.7 | 0.00 | 0.00 | 0.08 | 37 | 1033.0 |
| 20260509002856 | 53 | 270 | 0.0 | 2.6 | 0.00 | 0.00 | 0.08 | 37 | 1033.0 |
| 20260509002357 | 53 | 270 | 2.6 | 5.2 | 0.00 | 0.00 | 0.08 | 36 | 1033.0 |
| 20260509001858 | 53 | 270 | 3.5 | 4.3 | 0.00 | 0.00 | 0.08 | 35 | 1033.0 |
| 20260509001356 | 54 | 248 | 2.6 | 3.5 | 0.00 | 0.00 | 0.08 | 35 | 1033.0 |
| 20260509000857 | 54 | 225 | 5.2 | 5.2 | 0.00 | 0.00 | 0.08 | 35 | 1032.0 |
| 20260509000356 | 54 | 225 | 2.6 | 2.6 | 0.00 | 0.00 | 0.08 | 35 | 1032.0 |
| 20260508235356 | 54 | 225 | 3.5 | 5.2 | 0.00 | 0.00 | 0.08 | 35 | 1032.0 |
| 20260508234856 | 55 | 225 | 3.5 | 4.3 | 0.00 | 0.00 | 0.08 | 35 | 1032.0 |
| 20260508234356 | 55 | 248 | 2.6 | 4.3 | 0.00 | 0.00 | 0.08 | 34 | 1032.0 |
| 20260508233856 | 55 | 225 | 3.5 | 5.2 | 0.00 | 0.00 | 0.08 | 34 | 1032.0 |
| 20260508233356 | 55 | 225 | 5.2 | 7.8 | 0.00 | 0.00 | 0.08 | 33 | 1032.0 |
| 20260508232856 | 56 | 203 | 2.6 | 3.5 | 0.00 | 0.00 | 0.08 | 33 | 1032.0 |
| 20260508232356 | 56 | 225 | 2.6 | 7.0 | 0.00 | 0.00 | 0.08 | 33 | 1032.0 |
| 20260508231858 | 56 | 248 | 7.0 | 7.0 | 0.00 | 0.00 | 0.08 | 33 | 1032.0 |
| 20260508231356 | 56 | 225 | 7.0 | 7.8 | 0.00 | 0.00 | 0.08 | 33 | 1032.0 |
| 20260508230856 | 56 | 270 | 4.3 | 5.2 | 0.00 | 0.00 | 0.08 | 33 | 1032.0 |
| 20260508230356 | 56 | 225 | 5.2 | 7.0 | 0.00 | 0.00 | 0.08 | 33 | 1032.0 |
| 20260508225856 | 56 | 225 | 4.3 | 7.0 | 0.00 | 0.00 | 0.08 | 33 | 1032.0 |
| 20260508225356 | 57 | 225 | 3.5 | 7.8 | 0.00 | 0.00 | 0.08 | 33 | 1032.0 |
| 20260508224856 | 57 | 225 | 6.1 | 7.8 | 0.00 | 0.00 | 0.08 | 34 | 1032.0 |
| 20260508224356 | 57 | 248 | 3.5 | 7.0 | 0.00 | 0.00 | 0.08 | 34 | 1032.0 |
| 20260508223856 | 57 | 180 | 5.2 | 6.1 | 0.00 | 0.00 | 0.08 | 35 | 1032.0 |
| 20260508223358 | 57 | 203 | 3.5 | 7.0 | 0.00 | 0.00 | 0.08 | 36 | 1033.0 |
| 20260508222856 | 57 | 225 | 3.5 | 5.2 | 0.00 | 0.00 | 0.08 | 36 | 1033.0 |
| 20260508222356 | 57 | 248 | 3.5 | 5.2 | 0.00 | 0.00 | 0.08 | 36 | 1033.0 |
| 20260508221856 | 58 | 225 | 5.2 | 6.1 | 0.00 | 0.00 | 0.08 | 36 | 1032.0 |
| 20260508221357 | 57 | 248 | 5.2 | 8.7 | 0.00 | 0.00 | 0.08 | 35 | 1033.0 |
| 20260508220856 | 57 | 203 | 5.2 | 6.1 | 0.00 | 0.00 | 0.08 | 35 | 1033.0 |
| 20260508220356 | 58 | 248 | 6.1 | 7.8 | 0.00 | 0.00 | 0.08 | 35 | 1032.0 |
| 20260508215856 | 59 | 270 | 4.3 | 5.2 | 0.00 | 0.00 | 0.08 | 35 | 1033.0 |
| 20260508215357 | 58 | 203 | 6.1 | 7.0 | 0.00 | 0.00 | 0.08 | 35 | 1032.0 |
| 20260508214856 | 57 | 225 | 4.3 | 7.0 | 0.00 | 0.00 | 0.08 | 35 | 1033.0 |
| 20260508214357 | 57 | 203 | 7.0 | 7.0 | 0.00 | 0.00 | 0.08 | 35 | 1033.0 |
| 20260508213857 | 57 | 248 | 7.8 | 7.8 | 0.00 | 0.00 | 0.08 | 35 | 1033.0 |
| 20260508213356 | 57 | 225 | 7.0 | 9.6 | 0.00 | 0.00 | 0.08 | 36 | 1033.0 |
| 20260508212857 | 57 | 203 | 4.3 | 7.0 | 0.00 | 0.00 | 0.08 | 36 | 1033.0 |
| 20260508212356 | 57 | 248 | 5.2 | 7.0 | 0.00 | 0.00 | 0.08 | 36 | 1033.0 |
| 20260508211857 | 57 | 248 | 7.0 | 7.8 | 0.00 | 0.00 | 0.08 | 36 | 1033.0 |
| 20260508211356 | 57 | 270 | 3.5 | 8.7 | 0.00 | 0.00 | 0.08 | 36 | 1033.0 |
| 20260508210856 | 57 | 225 | 7.0 | 9.6 | 0.00 | 0.00 | 0.08 | 36 | 1033.0 |
| 20260508210357 | 58 | 203 | 6.1 | 9.6 | 0.00 | 0.00 | 0.08 | 36 | 1033.0 |
| 20260508205856 | 59 | 225 | 8.7 | 8.7 | 0.00 | 0.00 | 0.08 | 36 | 1033.0 |
| 20260508205356 | 59 | 270 | 5.2 | 7.8 | 0.00 | 0.00 | 0.08 | 37 | 1033.0 |
| 20260508204856 | 59 | 225 | 7.0 | 7.0 | 0.00 | 0.00 | 0.08 | 37 | 1033.0 |
| 20260508204356 | 59 | 203 | 6.1 | 6.1 | 0.00 | 0.00 | 0.08 | 38 | 1033.0 |
| 20260508203856 | 59 | 225 | 2.6 | 6.1 | 0.00 | 0.00 | 0.08 | 38 | 1033.0 |
| 20260508203356 | 57 | 180 | 4.3 | 7.8 | 0.00 | 0.00 | 0.08 | 38 | 1033.0 |
| 20260508202857 | 58 | 203 | 7.8 | 9.6 | 0.00 | 0.00 | 0.08 | 38 | 1033.0 |
| 20260508202356 | 59 | 225 | 6.1 | 7.8 | 0.00 | 0.00 | 0.08 | 38 | 1033.0 |
| 20260508201856 | 59 | 180 | 1.7 | 6.1 | 0.00 | 0.00 | 0.08 | 38 | 1033.0 |
| 20260508201357 | 58 | 225 | 4.3 | 6.1 | 0.00 | 0.00 | 0.08 | 39 | 1033.0 |
| 20260508200856 | 58 | 203 | 7.0 | 7.0 | 0.00 | 0.00 | 0.08 | 39 | 1033.0 |
| 20260508200358 | 57 | 225 | 5.2 | 8.7 | 0.00 | 0.00 | 0.08 | 39 | 1033.0 |
| 20260508195856 | 57 | 180 | 4.3 | 8.7 | 0.00 | 0.00 | 0.08 | 40 | 1033.0 |
| 20260508195357 | 58 | 180 | 5.2 | 7.0 | 0.00 | 0.00 | 0.08 | 40 | 1033.0 |
| 20260508194856 | 58 | 203 | 7.0 | 7.0 | 0.00 | 0.00 | 0.08 | 40 | 1033.0 |
| 20260508194357 | 57 | 180 | 5.2 | 7.8 | 0.00 | 0.00 | 0.08 | 40 | 1033.0 |
| 20260508193857 | 58 | 203 | 7.0 | 7.0 | 0.00 | 0.00 | 0.08 | 39 | 1033.0 |
| 20260508193359 | 59 | 113 | 1.7 | 5.2 | 0.00 | 0.00 | 0.08 | 42 | 1033.0 |
| 20260508192856 | 59 | 248 | 5.2 | 7.8 | 0.00 | 0.00 | 0.08 | 43 | 1034.0 |
| 20260508192357 | 58 | 225 | 1.7 | 4.3 | 0.00 | 0.00 | 0.08 | 43 | 1034.0 |
| 20260508191856 | 58 | 203 | 3.5 | 6.1 | 0.00 | 0.00 | 0.08 | 43 | 1034.0 |
| 20260508191356 | 58 | 293 | 4.3 | 7.8 | 0.00 | 0.00 | 0.08 | 43 | 1034.0 |
| 20260508190856 | 59 | 225 | 3.5 | 5.2 | 0.00 | 0.00 | 0.08 | 44 | 1034.0 |
| 20260508190356 | 59 | 225 | 5.2 | 6.1 | 0.00 | 0.00 | 0.08 | 46 | 1034.0 |